This is the latest recevied weather packets stored in our database for station/object RN1M-13. If no packets are shown the sender has not sent any weather packets the latest 10 day(s).
| Time | Temp. | Humidity | Pressure | Rain* | Wind** | Luminosity | Snow |
|---|---|---|---|---|---|---|---|
| 1777961654 | 11.67° C | 100% | 998.7 hPa | - | - | - | - |
| 1777960753 | 11.67° C | 100% | 998.2 hPa | - | - | - | - |
| 1777959853 | 11.67° C | 100% | 997.9 hPa | - | - | - | - |
| 1777958953 | 11.67° C | 100% | 997.8 hPa | - | - | - | - |
| 1777958053 | 11.11° C | 100% | 997.7 hPa | - | - | - | - |
| 1777957155 | 11.11° C | 100% | 998.5 hPa | - | - | - | - |
| 1777956262 | 11.11° C | 100% | 997.8 hPa | - | - | - | - |
| 1777955362 | 11.11° C | 100% | 998 hPa | - | - | - | - |
| 1777954462 | 11.67° C | 100% | 998 hPa | - | - | - | - |
| 1777953562 | 12.22° C | 100% | 997.1 hPa | - | - | - | - |
| 1777952662 | 10.56° C | 100% | 997.4 hPa | - | - | - | - |
| 1777951762 | 11.67° C | 100% | 997.4 hPa | - | - | - | - |
| 1777950861 | 11.11° C | 100% | 997.4 hPa | - | - | - | - |
| 1777949961 | 10.56° C | 100% | 997.1 hPa | - | - | - | - |
| 1777949061 | 10.56° C | 100% | 997 hPa | - | - | - | - |
| 1777948161 | 11.11° C | 100% | 996.4 hPa | - | - | - | - |
| 1777947261 | 10° C | 100% | 996.3 hPa | - | - | - | - |
| 1777946363 | 10° C | 100% | 997.3 hPa | - | - | - | - |
| 1777945472 | 10.56° C | 100% | 995.9 hPa | - | - | - | - |
| 1777944572 | 10° C | 100% | 996 hPa | - | - | - | - |
| 1777943672 | 9.44° C | 100% | 996.3 hPa | - | - | - | - |
| 1777942772 | 10° C | 100% | 996.1 hPa | - | - | - | - |
| 1777941872 | 10° C | 100% | 995.7 hPa | - | - | - | - |
| 1777940971 | 10° C | 100% | 995.7 hPa | - | - | - | - |
| 1777940072 | 9.44° C | 100% | 995.8 hPa | - | - | - | - |
* Rain since midnight (hover to see other rain measurements)
** Current wind speed in m/s (hover to see current wind gust speed)